sat.trackr.live / text

‹ back to catalog

STARLINK-34062

NORAD 64021 · 2025-101AD

PAYLOAD ACTIVE UNKNOWN

§ Identity

Operator
Country
US
Launch date
2025-05-14
Launch site
AFETR
Launch vehicle
Mass (kg)
RCS (m²)

Purposes: comms

External: N2YO · Heavens-Above · Gunter

§ Orbital elements

Epoch: 2026-09-20T21:46:54.352992Z

Period
94.27 min
Inclination
43.0009°
Eccentricity
0.0001582
Mean motion
15.27599222 rev/d
Perigee alt
481.9 km
Apogee alt
484.1 km
Semi-major
6,861.1 km
B*
5.1428e-4
RAAN
335.2660°
Arg perigee
269.0448°
Mean anomaly
91.0222°
Rev number
7,691

§ Raw data

STARLINK-340621 64021U 25101AD  26263.90757353  .00013925  00000+0  51428-3 0  99922 64021  43.0009 335.2660 0001582 269.0448  91.0222 15.27599222 76918

JSON: /api/v1/satellites/64021 · /tle

For live sub-satellite position, see the globe view (requires WebGL).

§ Visibility from observer

Set your observer location to see the next 7 days of passes ≥ 10°. The values pass through the URL so the page stays shareable.

No JS? Fill the form by hand. The geolocation button needs JavaScript.